Overview Statistics Trail Chart Weather Telemetry Raw packets
 

This is the latest recevied weather packets stored in our database for station/object W7TRD. If no packets are shown the sender has not sent any weather packets the latest 10 day(s).

<< 83 84 85 86 87 88 89 >>
Time Temp. Humidity Pressure Rain* Wind** Luminosity Snow
1788012140 13.33° C 95% 1019.1 hPa 0 mm - 22 W/m² -
1788011839 13.33° C 95% 1019.1 hPa 0 mm - 17 W/m² -
1788011538 13.33° C 95% 1019.1 hPa 0 mm - 16 W/m² -
1788011234 13.33° C 96% 1019 hPa 0 mm - 13 W/m² -
1788010932 13.33° C 96% 1019.2 hPa 0 mm - 9 W/m² -
1788010628 13.33° C 96% 1019.1 hPa 0 mm - 5 W/m² -
1788010327 13.33° C 96% 1019.1 hPa 0 mm - 3 W/m² -
1788010027 13.33° C 96% 1019.1 hPa 0 mm - 2 W/m² -
1788009727 13.33° C 96% 1018.8 hPa 0 mm - 1 W/m² -
1788009425 13.33° C 96% 1018.9 hPa 0 mm - 0 W/m² -
1788009120 13.33° C 96% 1019 hPa 0 mm - 0 W/m² -
1788008815 13.33° C 96% 1018.8 hPa 0 mm - 0 W/m² -
1788008515 13.33° C 96% 1018.7 hPa 0 mm - 0 W/m² -
1788008212 13.33° C 96% 1018.7 hPa 0 mm - 0 W/m² -
1788007910 13.33° C 96% 1018.7 hPa 1.78 mm - 0 W/m² -
1788007609 13.33° C 95% 1018.7 hPa 1.78 mm - 0 W/m² -
1788007304 13.33° C 95% 1018.7 hPa 0 mm - 0 W/m² -
1788007008 13.33° C 94% 1018.7 hPa 0 mm - 0 W/m² -
1788006699 13.33° C 94% 1018.9 hPa 0 mm - 0 W/m² -
1788006394 13.33° C 93% 1018.9 hPa 1.27 mm - 0 W/m² -
1788006093 13.33° C 92% 1018.8 hPa 1.27 mm - 0 W/m² -
1788005792 13.89° C 91% 1019 hPa 1.78 mm - 0 W/m² -
1788005487 13.89° C 90% 1019 hPa 3.05 mm - 0 W/m² -
1788005186 13.89° C 89% 1019.1 hPa 1.78 mm - 0 W/m² -
1788004880 14.44° C 88% 1018.9 hPa 0 mm - 0 W/m² -

* Rain latest hour (hover to see other rain measurements)
** Current wind speed in m/s (hover to see current wind gust speed)